Regional Weather Roundup
Issued by NWS Cleveland, OH

Home | Current Version | Previous Version | Text Only | Print | Product List | Glossary Off
Versions: 1 2 3 4 5 6 7 8 9 10 11 12 13 14 15 16 17 18 19 20 21 22 23 24 25 26 27 28 29 30 31 32 33 34 35 36 37 38 39 40 41 42 43 44 45 46 47 48 49 50

265
ASUS41 KCLE 032310
RWRCLE
OHIO REGIONAL WEATHER ROUNDUP
NATIONAL WEATHER SERVICE CLEVELAND, OH
700 PM EDT TUE MAY 03 2016

NOTE: "FAIR" INDICATES FEW OR NO CLOUDS BELOW 12,000 FEET WITH NO
SIGNIFICANT WEATHER AND/OR OBSTRUCTIONS TO VISIBILITY.

OHZ001>008-015>018-024>027-034-035-043-044-040000-
   NORTHWEST OHIO

CITY           SKY/WX    TMP DP  RH WIND       PRES   REMARKS
DEFIANCE       PTSUNNY   60  40  47 SW5       29.83S
FINDLAY        CLOUDY    62  38  40 W7        29.82S
TOLEDO EXPRESS PTSUNNY   61  37  41 W12       29.81S
TOLEDO EXEC    MOSUNNY   58  46  64 SE6       29.82F
LIMA           CLOUDY    57  46  66 W8        29.84S
$$

OHZ009>014-019>023-028>033-038-089-040000-
   NORTHEAST OHIO

CITY           SKY/WX    TMP DP  RH WIND       PRES   REMARKS
CLE-HOPKINS    PTSUNNY   57  36  45 CALM      29.86S
CLE-LAKEFRONT  SUNNY     54  40  59 CALM      29.83F
CUY CO. ARPT   MOSUNNY   59  39  47 N7        29.84F
LORAIN-ELYRIA  CLOUDY    57  35  43 CALM      29.84S
ASHTABULA      SUNNY     55  39  54 N5        29.84R
AKRON-CANTON   PTSUNNY   57  37  47 NW12      29.82S
WOOSTER        CLOUDY    57  41  55 N7        29.83F
MANSFIELD      CLOUDY    55  44  66 NW3       29.84S
YOUNGSTOWN     PTSUNNY   57  38  48 N12       29.81R
$$

OHZ042-051>053-060>062-070>072-077>081-040000-
  SOUTHWEST OHIO

CITY           SKY/WX    TMP DP  RH WIND       PRES   REMARKS
CINC-COVINGTON CLOUDY    55  50  83 SW5       29.88S
CINC-LUNKEN    CLOUDY    59  48  67 NW7       29.88S
HAMILTON       CLOUDY    59  47  64 NW8       29.88F
DAYTON         CLOUDY    57  46  66 VRB5      29.87S
WRIGHT-PAT AFB CLOUDY    58  47  65 NW6       29.85F
DAYTON GENERAL CLOUDY    58  44  60 NW6       29.85F
WILMINGTON     CLOUDY    57  46  66 NW3       29.86S
$$

OHZ036-037-039>041-045>050-054>059-063>069-073>076-082>088-040000-
  CENTRAL AND SOUTHEAST OHIO

CITY           SKY/WX    TMP DP  RH WIND       PRES   REMARKS
COLUMBUS       CLOUDY    57  47  69 SW3       29.84S
OSU AIRPORT    CLOUDY    58  46  64 W7        29.84S
BOLTON FIELD   CLOUDY    57  46  67 W5        29.85F
RICKENBACK AFB CLOUDY    57  47  69 NW5       29.84S
NEWARK         CLOUDY    60  46  59 CALM      29.83S
MARION         CLOUDY    58  43  57 W6        29.84F
LANCASTER      CLOUDY    57  48  72 NW8       29.85S
ZANESVILLE     CLOUDY    60  46  59 W3        29.83S
NEW PHILLY     CLOUDY    59  42  53 NW6       29.83R
$$




USA.gov is the U.S. government's official web portal to all federal, state and local government web resources and services.